This is the latest recevied weather packets stored in our database for station/object VE3VGJ. If no packets are shown the sender has not sent any weather packets the latest 10 day(s).
| Time | Temp. | Humidity | Pressure | Rain* | Wind** | Luminosity | Snow |
|---|---|---|---|---|---|---|---|
| 1777397100 | 11.67° C | 86% | 1011.4 hPa | 0 mm | - | 208 W/m² | - |
| 1777396797 | 11.67° C | 86% | 1011.2 hPa | 0 mm | - | 194 W/m² | - |
| 1777396494 | 11.67° C | 87% | 1011.4 hPa | 0 mm | - | 165 W/m² | - |
| 1777396191 | 11.67° C | 88% | 1011.4 hPa | 0 mm | - | 175 W/m² | - |
| 1777395886 | 11.11° C | 89% | 1011.5 hPa | 0 mm | - | 157 W/m² | - |
| 1777395582 | 11.11° C | 89% | 1011.7 hPa | 0 mm | - | 202 W/m² | - |
| 1777395278 | 11.11° C | 89% | 1011.8 hPa | 0 mm | - | 186 W/m² | - |
| 1777394977 | 11.11° C | 89% | 1011.8 hPa | 0 mm | - | 188 W/m² | - |
| 1777394673 | 11.11° C | 90% | 1011.8 hPa | 0 mm | - | 186 W/m² | - |
| 1777394369 | 11.11° C | 90% | 1011.8 hPa | 0 mm | - | 202 W/m² | - |
| 1777394066 | 10.56° C | 90% | 1011.7 hPa | 0 mm | - | 185 W/m² | - |
| 1777393761 | 10.56° C | 90% | 1011.8 hPa | 1.27 mm | - | 170 W/m² | - |
| 1777393461 | 10.56° C | 90% | 1011.9 hPa | 1.27 mm | - | 182 W/m² | - |
| 1777393157 | 10.56° C | 90% | 1011.6 hPa | 3.05 mm | - | 177 W/m² | - |
| 1777392854 | 10.56° C | 89% | 1011.8 hPa | 4.83 mm | - | 125 W/m² | - |
| 1777392549 | 10.56° C | 89% | 1011.9 hPa | 1.78 mm | - | 116 W/m² | - |
| 1777392245 | 10.56° C | 88% | 1011.7 hPa | 0 mm | - | 170 W/m² | - |
| 1777391940 | 10.56° C | 88% | 1011.7 hPa | 0 mm | - | 196 W/m² | - |
| 1777391635 | 10.56° C | 89% | 1011.5 hPa | 0 mm | - | 195 W/m² | - |
| 1777391332 | 10.56° C | 89% | 1011.8 hPa | 0 mm | - | 133 W/m² | - |
| 1777391029 | 10.56° C | 88% | 1011.6 hPa | 0 mm | - | 113 W/m² | - |
| 1777390724 | 10.56° C | 88% | 1011.6 hPa | 0 mm | - | 99 W/m² | - |
| 1777390422 | 10.56° C | 90% | 1011.8 hPa | 0 mm | - | 106 W/m² | - |
| 1777390117 | 10.56° C | 90% | 1011.7 hPa | 0 mm | - | 82 W/m² | - |
| 1777389814 | 10.56° C | 91% | 1011.8 hPa | 0 mm | - | 101 W/m² | - |
* Rain latest hour (hover to see other rain measurements)
** Current wind speed in m/s (hover to see current wind gust speed)